User: anonymous   Login
Location: PACMO
(41.3967°N, 90.3760°W)
Time: 01:04:39
(UTC-05:00)
Language:

BREEZE-M DEB (TANK) - Orbit

View from above orbital plane
View from above orbital plane
View from above satellite
View from above satellite

Ground track
Ground track

The orbit data is extracted from the following two-line orbital elements,

1 31863U 07032B   15185.15838978  .00000284  00000-0  16660-3 0  9998
2 31863 045.9128 243.2336 4994815 090.2432 324.6520 05.51583186160107
Epoch (UTC): 04 July 2015 03:48:04
Eccentricity: 0.4994815
inclination: 45.9128°
perigee height: 394 km
apogee height: 13911 km
right ascension of ascending node: 243.2336°
argument of perigee: 90.2432°
revolutions per day: 5.51583186
mean anomaly at epoch: 324.6520°
orbit number at epoch: 16010

The dashed part of the orbit path shows where the satellite is in the earth's shadow,  

DLR